Zurück zum Katalog

STARLINK-34023

AktivKommunikationVLEO
NORAD 63875·PAYLOAD·🇺🇸 United States

Gestartet May 10, 2025 von Vandenberg Space Force Base

Loading…

Nächste Überflüge (nächste 24 Stunden)

TLE

AktuellSource: CelesTrak SupGP

Epoche: Sep 15, 2026, 02:56 UTC

1 63875C 25094M   26258.12270833 -.00008356  00000+0 -29069-3 0  2588
2 63875  69.9990 115.0126 0003375 272.7036 101.5598 15.29580704    15

Verfolge STARLINK-34023 in Echtzeit mit AllMySat

Download on the App Store